TimePST,TemperatureF,Dew PointF,Humidity,Sea Level PressureIn,VisibilityMPH,Wind Direction,Wind SpeedMPH,Gust SpeedMPH,PrecipitationIn,Events,Conditions,WindDirDegrees,DateUTC
12:54 AM,53.1,48.9,86,30.06,10.0,South,6.9,-,N/A,,Overcast,190,2013-03-03 08:54:00
1:54 AM,53.1,48.9,86,30.07,10.0,SSW,8.1,-,N/A,,Overcast,200,2013-03-03 09:54:00
2:54 AM,53.1,48.9,86,30.06,10.0,South,4.6,-,N/A,,Overcast,190,2013-03-03 10:54:00
3:54 AM,52.0,48.0,86,30.05,10.0,SW,4.6,-,N/A,,Overcast,220,2013-03-03 11:54:00
4:54 AM,52.0,48.0,86,30.06,10.0,WSW,3.5,-,N/A,,Overcast,240,2013-03-03 12:54:00
5:54 AM,52.0,48.9,89,30.05,10.0,WSW,4.6,-,N/A,,Overcast,240,2013-03-03 13:54:00
6:54 AM,51.1,46.9,86,30.05,10.0,West,8.1,-,N/A,,Overcast,260,2013-03-03 14:54:00
7:54 AM,51.1,48.0,89,30.06,10.0,WSW,4.6,-,N/A,,Partly Cloudy,240,2013-03-03 15:54:00
8:54 AM,55.9,48.9,77,30.06,10.0,WSW,9.2,-,N/A,,Clear,240,2013-03-03 16:54:00
9:54 AM,55.9,48.0,75,30.06,10.0,WSW,6.9,-,N/A,,Overcast,250,2013-03-03 17:54:00
10:54 AM,62.1,50.0,65,30.05,10.0,West,12.7,-,N/A,,Mostly Cloudy,260,2013-03-03 18:54:00
11:54 AM,64.0,50.0,60,30.04,10.0,West,13.8,-,N/A,,Scattered Clouds,260,2013-03-03 19:54:00
12:54 PM,64.9,48.0,54,30.02,10.0,West,13.8,-,N/A,,Clear,260,2013-03-03 20:54:00
1:54 PM,66.0,46.0,48,30.00,10.0,West,11.5,-,N/A,,Clear,260,2013-03-03 21:54:00
2:54 PM,66.0,46.0,48,30.00,10.0,WSW,9.2,-,N/A,,Clear,250,2013-03-03 22:54:00
3:54 PM,60.1,51.1,72,30.00,10.0,SSW,16.1,-,N/A,,Clear,200,2013-03-03 23:54:00
4:54 PM,59.0,46.9,64,30.01,10.0,West,8.1,-,N/A,,Clear,270,2013-03-04 00:54:00
5:54 PM,54.0,46.0,75,30.02,10.0,SW,10.4,-,N/A,,Clear,230,2013-03-04 01:54:00
6:54 PM,51.1,45.0,80,30.03,10.0,SW,9.2,-,N/A,,Clear,220,2013-03-04 02:54:00
7:54 PM,50.0,45.0,83,30.04,10.0,SW,10.4,-,N/A,,Clear,230,2013-03-04 03:54:00
8:54 PM,48.0,44.1,86,30.05,10.0,WSW,8.1,-,N/A,,Clear,250,2013-03-04 04:54:00
9:54 PM,46.0,43.0,89,30.06,10.0,Calm,Calm,-,N/A,,Clear,0,2013-03-04 05:54:00
10:54 PM,42.1,39.9,92,30.07,8.0,Calm,Calm,-,N/A,,Partly Cloudy,0,2013-03-04 06:54:00
11:09 PM,42.8,39.2,87,30.09,8.0,Calm,Calm,-,N/A,,Mostly Cloudy,0,2013-03-04 07:09:00
11:43 PM,41.0,39.2,93,30.08,7.0,SE,4.6,-,N/A,,Mostly Cloudy,140,2013-03-04 07:43:00
11:54 PM,43.0,41.0,93,30.06,7.0,Calm,Calm,-,N/A,,Overcast,0,2013-03-04 07:54:00